Probability
0 0 0 0 0 0 0 0 0 0 0 0 0 0 0 0 0 0 0 0 0 0 0 0 0 0 0 0 0 0 0 0 0 0 0 0 0 0 0 0 0 0 0 0
0 0 0 0 0 0 0 0 0 0 0 0 0 0 0 0 0 0 0 0 0 0 0 0 0 0 0 0 0 0 0 0 0 0 0 0 0 0 0 0 0 0 0 0
0 0 0 0 0 0 0 0 0 0 0 0 0 0 0 0 0 0 0 0 0 0 0 0 0 0 0 0 0 0 0 0 0 0 0 0 0 0 0 0 0 0 0 0
0 0 0 0 0 0 0 0 0 0 0 0 0 0 0 0 0 0 0 0 0 0 0 0 0 0 0 0 0 0 0 0 0 0 0 0 0 0 0 0 0 0 0 0
0 0 0 0 0 0 0 0 0 0 0 0 0 0 0 0 0 0 0 0 0 0 0 0 0 0 0 0 0 0 0 0 0 0 0 0 0 0 0 0 0 0 0 0
0 0 0 0 0 0 0 0 0 0 0 0 0 0 0 0 0 0 0 0 0 0 0 0 0 0 0 0 0 0 0 0 0 0 0 0 0 0 0 0 0 0 0 0
0 0 0 0 0 0 0 0 0 0 0 0 0 0 0 0 0 0 0 0 0 0 0 0 0 0 0 0 0 0 0 0 0 0 0 0 0 0 0 0 0 0 0 0
0 0 0 0 0 0 0 0 0 0 0 0 0 0 0 0 0 0 0 0 0 0 0 0 0 0 0 0 0 0 0 0 0 0 0 0 0 0 0 0 0 0 0 0
0 0 0 0 0 0 0 0 0 0 0 0 0 0 0 0 0 0 0 0 0 0 0 0 0 0 0 0 0 0 0 0 0 0 0 0 0 0 0 0 0 0 0 0
0 0 0 0 0 0 0 0 0 0 0 0 0 0 0 0 0 0 0 0 0 0 0 0 0 0 0 0 0 0 0 0 0 0 0 0 0 0 0 0 0 0 0 0
0 0 0 0 0 0 0 0 0 0 0 0 0 0 0 0 0 0 0 0 0 0 0 0 0 0 0 0 0 0 0 0 0 0 0 0 0 0 0 0 0 0 0 0
0 0 0 0 0 0 0 0 0 0 0 0 0 0 0 0 0 0 0 0 0 0 0 0 0 0 0 0 0 0 0 0 0 0 0 0 0 0 0 0 0 0 0 0
0 0 0 0 0 0 0 0 0 0 0 0 0 0 0 0 0 0 0 0 0 0 0 0 0 0 0 0 0 0 0 0 0 0 0 0 0 0 0 0 0 0 0 0
0 0 0 0 0 0 0 0 0 0 0 0 0 0 0 0 0 0 0 0 0 0 0 0 0 0 0 0 0 0 0 0 0 0 0 0 0 0 0 0 0 0 0 0
0 0 0 0 0 0 0 0 0 0 0 0 0 0 0 0 0 0 0 0 0 0 0 0 0 0 0 0 0 0 0 0 0 0 0 0 0 0 0 0 0 0 0 0
0 0 0 0 0 0 0 0 0 0 0 0 0 0 0 0 0 0 0 0 0 0 0 0 0 0 0 0 0 0 0 0 0 0 0 0 0 0 0 0 0 0 0 0
0 0 0 0 0 0 0 0 0 0 0 0 0 0 0 0 0 0 0 0 0 0 0 0 0 0 0 0 0 0 0 0 0 0 0 0 0 0 0 0 0 0 0 0
0 0 0 0 0 0 0 0 0 0 0 0 0 0 0 0 0 0 0 0 0 0 0 0 0 0 0 0 0 0 0 0 0 0 0 0 0 0 0 0 0 0 0 0
0 0 0 0 0 0 0 0 0 0 0 0 0 0 0 0 0 0 0 0 0 0 0 0 0 0 0 0 0 0 0 0 0 0 0 0 0 0 0 0 0 0 0 0
0 0 0 0 0 0 0 0 0 0 0 0 0 0 0 0 0 0 0 0 0 0 0 0 0 0 0 0 0 0 0 0 0 0 0 0 0 0 0 0 0 0 0 0
0 0 0 0 0 0 0 0 0 0 0 0 0 0 0 0 0 0 0 0 0 0 0 0 0 0 0 0 0 0 0 0 0 0 0 0 0 0 0 0 0 0 0 0
0 0 0 0 0 0 0 0 0 0 0 0 0 0 0 0 0 0 0 0 0 0 0 0 0 0 0 0 0 0 0 0 0 0 0 0 0 0 0 0 0 0 0 0
0 0 0 0 0 0 0 0 0 0 0 0 0 0 0 0 0 0 0 0 0 0 0 0 0 0 0 0 0 0 0 0 0 0 0 0 0 0 0 0 0 0 0 0
0 0 0 0 0 0 0 0 0 0 0 0 0 0 0 0 0 0 0 0 0 0 0 0 0 0 0 0 0 0 0 0 0 0 0 0 0 0 0 0 0 0 0 0
0 0 0 0 0 0 0 0 0 0 0 0 0 0 0 0 0 0 0 0 0 0 0 0 0 0 0 0 0 0 0 0 0 0 0 0 0 0 0 0 0 0 0 0
0 0 0 0 0 0 0 0 0 0 0 0 0 0 0 0 0 0 0 0 0 0 0 0 0 0 0 0 0 0 0 0 0 0 0 0 0 0 0 0 0 0 0 0
0 0 0 0 0 0 0 0 0 0 0 0 0 0 0 0 0 0 0 0 0 0 0 0 0 0 0 0 0 0 0 0 0 0 0 0 0 0 0 0 0 0 0 0
Height
5747 5738 5730 5720 5711 5701 5688 5674 5662 5649 5635 5621 5607 5595 5585 5574 5565 5559 5551 5545 5539 5534 5527 5520 5512 5504 5495 5487 5479 5471 5465 5458 5452 5446 5441 5437 5435 5435 5437 5440 5445 5450 5456 5462
5741 5731 5722 5711 5700 5689 5674 5660 5646 5633 5623 5608 5596 5585 5574 5564 5555 5548 5541 5536 5531 5526 5519 5512 5505 5497 5490 5482 5475 5468 5462 5456 5449 5443 5438 5434 5431 5430 5432 5434 5438 5442 5447 5452
5731 5721 5711 5699 5688 5675 5659 5644 5629 5618 5608 5594 5584 5575 5563 5553 5546 5539 5532 5528 5523 5518 5512 5505 5498 5491 5484 5478 5472 5465 5459 5453 5448 5442 5437 5432 5429 5428 5429 5430 5433 5436 5440 5444
5719 5710 5699 5688 5675 5662 5647 5633 5618 5607 5596 5584 5574 5567 5557 5548 5540 5533 5527 5522 5517 5511 5505 5499 5492 5485 5479 5473 5467 5461 5456 5450 5445 5440 5436 5431 5428 5427 5426 5427 5429 5431 5433 5436
5707 5697 5688 5675 5663 5648 5635 5624 5606 5596 5587 5578 5570 5563 5555 5545 5536 5529 5522 5516 5510 5504 5498 5492 5485 5479 5473 5467 5461 5456 5451 5446 5441 5437 5433 5429 5427 5424 5423 5423 5424 5425 5426 5428
5696 5684 5674 5663 5650 5634 5622 5615 5601 5590 5581 5571 5562 5553 5547 5539 5531 5524 5517 5511 5505 5499 5493 5486 5480 5473 5467 5461 5455 5449 5444 5439 5435 5431 5428 5425 5423 5421 5419 5419 5419 5419 5420 5421
5688 5674 5663 5650 5636 5623 5613 5602 5590 5582 5574 5565 5556 5547 5540 5532 5525 5518 5512 5505 5499 5493 5487 5481 5474 5467 5460 5453 5447 5441 5436 5432 5428 5424 5421 5418 5416 5414 5413 5412 5412 5412 5412 5413
5676 5665 5654 5636 5623 5612 5604 5593 5583 5575 5566 5558 5551 5543 5536 5528 5521 5514 5507 5501 5494 5488 5481 5474 5467 5460 5452 5445 5439 5433 5427 5423 5419 5415 5412 5410 5407 5405 5404 5403 5403 5402 5402 5403
5669 5658 5642 5626 5613 5603 5594 5586 5577 5570 5562 5554 5546 5539 5531 5523 5516 5509 5502 5495 5489 5482 5474 5467 5459 5451 5444 5437 5430 5424 5418 5413 5409 5405 5402 5399 5397 5395 5393 5392 5391 5390 5390 5390
5661 5648 5635 5621 5608 5598 5588 5579 5571 5563 5556 5548 5541 5534 5526 5518 5511 5504 5496 5489 5482 5475 5467 5459 5451 5443 5435 5428 5421 5415 5409 5404 5399 5394 5391 5387 5385 5383 5381 5380 5378 5377 5376 5376
5653 5640 5627 5613 5600 5591 5583 5574 5566 5558 5551 5543 5536 5529 5521 5513 5506 5498 5491 5483 5475 5467 5459 5450 5442 5434 5426 5419 5412 5405 5399 5394 5388 5384 5379 5375 5372 5369 5367 5365 5363 5362 5361 5360
5644 5629 5616 5604 5593 5584 5577 5569 5562 5554 5546 5539 5532 5524 5517 5509 5501 5493 5484 5476 5468 5459 5449 5441 5432 5424 5416 5409 5401 5395 5388 5382 5376 5371 5366 5362 5358 5354 5351 5348 5346 5344 5343 5343
5634 5620 5606 5595 5585 5577 5570 5563 5556 5549 5541 5534 5527 5520 5512 5504 5495 5486 5478 5468 5459 5449 5440 5430 5422 5413 5405 5396 5388 5380 5373 5367 5361 5355 5350 5345 5341 5337 5334 5331 5327 5325 5324 5323
5625 5612 5600 5589 5580 5572 5565 5558 5551 5544 5537 5530 5522 5515 5506 5498 5489 5479 5470 5460 5450 5440 5430 5420 5410 5400 5390 5381 5371 5362 5354 5346 5339 5333 5327 5323 5318 5314 5311 5309 5306 5303 5301 5300
5615 5602 5591 5581 5572 5566 5559 5553 5546 5539 5532 5525 5517 5509 5501 5492 5482 5472 5462 5451 5441 5430 5419 5408 5397 5386 5375 5364 5353 5343 5334 5326 5318 5310 5304 5298 5293 5288 5285 5282 5279 5278 5276 5275
5607 5594 5583 5574 5566 5559 5553 5547 5541 5534 5527 5520 5512 5504 5494 5485 5474 5464 5453 5442 5431 5420 5408 5396 5385 5373 5362 5351 5340 5330 5320 5311 5302 5294 5286 5279 5273 5267 5262 5258 5254 5251 5249 5248
5601 5590 5580 5571 5563 5555 5548 5542 5536 5530 5523 5515 5506 5497 5488 5477 5467 5456 5444 5433 5421 5410 5398 5388 5377 5366 5356 5345 5335 5325 5315 5305 5296 5287 5278 5271 5263 5256 5249 5243 5238 5233 5228 5225
5593 5584 5575 5567 5559 5552 5545 5539 5532 5525 5518 5510 5501 5491 5481 5470 5460 5449 5437 5426 5415 5405 5395 5386 5376 5366 5355 5345 5335 5324 5314 5303 5294 5284 5275 5267 5259 5251 5243 5236 5230 5223 5217 5212
5588 5579 5572 5564 5558 5550 5543 5536 5529 5521 5513 5504 5494 5485 5475 5464 5454 5443 5432 5423 5414 5406 5397 5388 5378 5368 5358 5347 5336 5325 5314 5303 5293 5283 5273 5264 5255 5247 5239 5231 5224 5217 5211 5205
5583 5576 5569 5562 5556 5548 5541 5533 5525 5516 5508 5498 5489 5479 5470 5459 5449 5440 5432 5424 5417 5409 5401 5392 5382 5371 5360 5350 5338 5326 5314 5303 5292 5281 5271 5261 5251 5242 5233 5225 5218 5211 5204 5198
5579 5572 5566 5560 5553 5546 5538 5529 5521 5512 5503 5494 5485 5475 5465 5456 5447 5440 5434 5428 5420 5412 5404 5394 5384 5374 5363 5352 5340 5327 5315 5303 5291 5279 5267 5256 5246 5236 5226 5217 5209 5202 5196 5190
5574 5569 5563 5557 5550 5542 5534 5525 5517 5508 5499 5490 5481 5471 5462 5455 5449 5443 5437 5431 5424 5416 5407 5397 5387 5377 5366 5354 5341 5329 5316 5302 5289 5276 5263 5251 5239 5228 5218 5208 5199 5192 5186 5181
5570 5565 5559 5553 5546 5538 5530 5521 5513 5504 5496 5487 5477 5468 5461 5456 5452 5447 5441 5434 5427 5419 5410 5401 5391 5380 5369 5357 5344 5331 5316 5301 5287 5273 5260 5247 5234 5222 5210 5200 5190 5182 5176 5172
5566 5561 5555 5549 5541 5534 5526 5518 5509 5501 5492 5483 5475 5468 5463 5459 5455 5450 5444 5437 5430 5422 5414 5405 5395 5384 5373 5361 5347 5333 5317 5303 5289 5275 5260 5246 5232 5219 5206 5194 5184 5175 5169 5164
5561 5556 5551 5544 5537 5530 5522 5514 5506 5497 5489 5481 5474 5469 5466 5462 5458 5453 5447 5441 5434 5426 5418 5409 5399 5389 5378 5365 5351 5337 5323 5309 5295 5279 5264 5249 5235 5221 5208 5195 5183 5173 5166 5160
5557 5552 5546 5540 5533 5526 5518 5510 5503 5494 5486 5479 5474 5471 5468 5465 5461 5456 5451 5445 5438 5431 5423 5414 5405 5394 5383 5370 5357 5344 5332 5319 5305 5288 5272 5256 5241 5227 5213 5201 5189 5178 5170 5163
5552 5547 5541 5536 5529 5522 5515 5507 5500 5492 5485 5479 5476 5474 5471 5468 5464 5459 5454 5448 5442 5435 5427 5419 5410 5399 5388 5377 5365 5353 5341 5328 5313 5296 5280 5265 5250 5236 5223 5210 5199 5189 5181 5173
Wind_Speed
45 49 52 56 60 64 69 73 77 78 76 72 68 64 61 57 54 49 44 41 38 39 40 41 43 42 41 38 36 33 32 31 32 31 27 24 21 21 23 25 29 32 35 36
50 53 56 62 65 69 74 77 77 76 71 65 61 57 54 52 49 45 41 37 36 37 38 39 41 40 39 36 34 32 30 30 30 30 26 22 18 16 16 19 22 26 29 32
54 57 62 65 72 73 76 74 73 71 64 60 57 53 51 50 46 42 39 37 36 36 37 38 39 39 38 36 33 31 29 28 28 27 25 20 16 14 14 15 17 20 23 26
58 63 64 72 75 75 75 68 69 64 58 54 51 49 48 46 43 39 37 35 34 35 36 38 39 39 39 37 35 33 30 28 26 25 23 19 15 14 16 16 18 19 21 23
62 66 68 75 76 74 73 64 63 58 52 48 46 44 42 41 39 37 35 34 34 35 37 38 39 40 39 38 37 35 32 30 28 25 22 19 16 14 15 17 19 20 21 23
64 68 72 77 76 73 69 58 55 50 47 46 46 45 42 40 38 35 34 34 34 35 37 38 40 41 40 40 39 37 34 32 30 27 24 21 18 17 16 17 19 21 22 23
67 71 73 78 75 70 61 58 52 47 46 45 45 45 44 42 39 37 36 35 35 36 38 39 41 42 41 41 39 38 36 34 32 30 28 25 23 21 21 22 23 24 25 26
70 72 73 76 71 64 56 50 47 46 46 45 43 43 42 40 38 37 36 36 37 38 40 42 43 44 43 42 40 38 36 35 34 33 31 30 28 27 27 27 28 30 31 31
70 72 74 71 64 57 50 48 46 45 44 43 42 42 40 39 38 38 38 39 40 41 43 45 46 46 45 43 41 39 37 36 35 34 34 33 32 32 31 32 33 34 36 37
71 74 72 69 62 53 48 46 46 45 43 41 41 41 40 39 39 39 40 42 43 45 46 47 47 47 46 45 43 41 38 37 36 35 35 35 35 36 36 36 37 39 40 42
71 75 73 67 59 50 45 44 45 44 42 41 41 41 40 40 40 41 43 45 47 48 48 48 48 48 48 47 45 43 42 40 39 37 37 36 37 38 39 40 41 42 44 45
72 75 73 65 55 48 44 43 43 42 41 40 40 41 41 42 43 45 47 49 50 51 51 51 51 51 51 50 48 47 45 44 44 43 42 41 41 41 42 43 44 45 46 48
73 75 69 61 52 47 44 43 42 41 40 39 40 41 43 45 46 49 51 53 54 54 54 54 54 54 54 54 53 52 52 51 51 50 50 49 49 48 48 49 49 49 50 50
75 74 66 58 50 45 42 41 40 41 40 40 41 43 45 48 50 53 55 56 56 56 57 57 58 58 58 58 58 58 58 58 58 58 58 58 58 58 58 58 58 58 58 58
73 69 62 54 48 44 41 39 39 39 40 41 42 45 48 51 53 56 56 57 57 58 59 59 60 59 59 58 57 56 56 55 54 54 55 55 56 58 60 61 63 64 65 66
69 62 55 49 45 41 38 37 37 38 40 42 45 48 51 54 56 56 57 58 59 59 58 57 55 53 51 49 47 46 45 44 43 42 41 41 42 43 45 47 51 55 59 63
62 54 47 42 39 36 34 33 35 37 41 44 48 51 54 55 55 56 58 59 57 54 51 47 45 43 42 42 41 41 40 39 38 37 36 35 34 33 32 32 33 35 39 43
54 46 40 37 34 32 32 33 36 39 43 47 51 53 53 54 55 57 55 51 46 42 40 40 40 41 42 43 43 43 43 42 41 40 38 37 36 34 33 31 30 29 29 29
45 38 34 33 32 33 34 36 40 43 47 50 51 51 52 54 55 51 44 38 35 35 37 39 41 42 44 45 46 46 46 46 45 44 42 40 39 37 35 33 32 31 30 28
37 32 31 32 33 36 38 41 43 46 48 49 49 50 52 52 46 37 32 31 32 34 36 39 41 44 46 47 48 48 49 48 48 46 45 43 42 40 38 36 35 33 32 31
33 30 30 33 36 39 41 43 45 47 47 47 48 51 50 41 32 28 28 30 32 35 38 41 43 45 47 49 50 51 51 51 50 49 48 47 45 43 41 39 37 35 33 32
31 30 32 35 38 41 43 45 46 45 45 47 49 48 38 28 24 25 27 30 33 36 39 42 45 47 49 51 53 54 54 54 54 54 52 51 49 47 44 40 37 34 32 30
30 31 33 37 39 42 44 45 45 45 46 48 47 36 25 22 22 25 27 30 33 37 40 43 45 48 51 54 56 58 59 60 60 59 56 54 52 50 46 42 37 33 29 26
31 32 35 37 40 42 43 44 44 44 46 46 37 24 18 19 22 24 27 30 34 37 40 43 46 49 52 55 58 61 64 64 63 61 58 55 52 50 47 44 39 33 27 23
31 33 35 38 40 42 43 43 43 44 44 38 26 17 15 18 21 24 27 30 33 36 39 43 47 50 53 56 60 63 65 65 64 63 60 57 54 51 48 45 41 35 28 22
32 33 36 38 39 41 41 41 42 42 39 29 18 13 14 17 20 23 27 30 33 36 39 43 46 49 53 57 60 62 64 65 64 64 63 62 58 55 51 48 44 40 34 28
32 33 35 37 38 39 39 40 40 38 31 20 12 11 13 16 19 23 26 29 32 35 39 42 45 49 52 56 59 61 63 64 66 66 66 66 64 60 56 51 48 45 41 38
Wind_Direction
328 327 326 323 322 320 319 318 318 318 318 319 317 317 317 316 315 315 313 312 312 315 320 326 329 332 334 335 334 331 331 330 331 329 322 312 296 279 265 254 250 247 244 243
328 326 326 324 323 323 321 320 320 319 321 320 319 320 320 319 319 318 315 314 315 319 324 328 331 333 335 334 333 332 332 333 336 337 332 322 306 284 265 250 244 242 242 242
329 328 327 325 327 325 322 323 322 322 324 323 324 327 326 325 325 322 320 318 318 321 325 329 332 334 335 334 333 331 330 331 335 338 338 330 312 284 265 251 240 238 240 240
330 329 328 328 328 326 324 325 323 325 326 328 328 329 327 326 325 323 322 320 320 322 325 329 331 332 332 332 330 328 327 326 327 332 335 333 319 292 268 253 246 244 243 243
330 329 329 326 328 327 326 328 326 328 329 329 328 328 328 327 327 325 324 323 323 323 326 328 329 330 329 328 327 325 323 320 319 319 323 323 317 300 277 260 253 248 248 248
330 328 328 328 329 327 327 329 328 328 329 329 329 330 332 332 331 331 329 327 326 325 326 328 328 328 326 324 322 321 319 317 314 311 309 308 303 294 281 268 260 256 254 253
330 329 328 329 329 328 329 330 330 330 330 330 330 330 331 331 332 332 332 330 329 328 328 329 329 328 326 323 320 318 315 313 310 307 303 299 294 287 279 271 266 263 261 259
331 330 329 330 328 330 331 329 328 329 329 330 329 329 330 330 332 333 333 331 329 328 328 328 328 328 327 325 322 319 316 312 307 302 299 296 291 285 278 272 268 266 264 263
330 330 329 329 329 329 328 329 330 330 330 330 330 330 331 331 332 333 333 331 330 328 327 326 326 327 327 325 323 319 315 312 308 302 297 293 289 285 280 274 269 266 264 263
330 330 330 329 330 330 330 331 331 331 331 331 331 331 332 333 333 333 332 330 329 327 326 326 326 326 326 324 322 319 315 312 308 303 298 293 288 284 280 276 272 268 265 263
330 330 329 330 331 331 331 331 331 331 330 330 331 333 334 334 334 332 331 329 328 327 326 326 325 325 324 322 320 317 314 311 307 303 298 293 288 284 280 276 273 269 267 264
330 330 330 332 332 331 331 331 332 332 331 330 331 333 334 334 333 332 330 329 328 326 326 325 324 323 321 319 316 313 310 307 303 300 297 293 289 285 281 277 274 271 268 265
330 330 331 332 332 331 330 330 332 332 332 331 331 332 333 333 332 331 330 329 328 327 325 324 322 320 318 315 312 309 305 302 298 295 291 288 285 283 280 277 275 272 269 266
330 330 331 332 331 330 329 330 331 332 332 332 331 332 332 332 331 330 329 329 328 327 325 323 321 318 316 313 311 308 305 301 297 294 290 286 283 280 277 274 272 271 269 267
330 331 332 332 331 330 329 329 331 332 333 332 332 331 332 331 331 330 330 329 328 326 325 323 322 320 318 316 314 312 309 306 303 300 296 292 288 284 280 276 273 270 268 267
331 332 333 333 333 332 331 331 332 333 333 332 331 331 331 331 331 331 331 330 329 328 328 328 328 328 328 327 327 327 326 324 322 319 315 311 306 300 294 288 283 278 273 270
332 334 336 337 338 337 336 335 334 333 332 332 332 332 332 332 333 332 332 332 333 335 338 341 344 346 348 349 349 349 348 347 346 344 341 337 333 328 322 315 307 299 291 283
333 336 341 344 345 343 341 339 337 334 333 332 333 333 334 334 334 334 335 339 344 351 357 1 3 4 5 4 2 1 360 358 357 355 353 351 349 346 344 340 335 329 321 312
333 338 343 346 345 344 342 339 337 335 334 334 335 336 336 336 336 339 346 356 5 11 13 14 13 12 11 9 7 5 3 1 359 357 355 352 350 348 345 343 341 340 338 334
332 337 340 342 341 340 338 337 336 335 336 337 338 338 338 339 343 353 7 16 20 20 18 17 15 14 12 10 8 6 4 1 359 357 355 352 349 346 343 340 337 335 334 334
331 334 336 337 336 336 336 336 337 338 338 339 339 339 341 347 359 14 22 22 21 19 18 16 15 14 13 11 10 8 5 2 0 358 356 353 350 346 341 336 332 329 327 327
328 330 332 333 334 334 335 336 338 339 340 340 341 343 350 4 19 25 25 23 21 20 19 18 17 16 15 14 12 10 8 5 4 1 359 355 352 348 344 338 332 327 323 321
325 327 329 331 333 334 336 338 339 340 341 342 344 351 5 22 28 26 24 23 22 21 20 19 18 18 17 16 14 13 11 9 7 4 1 358 355 353 350 346 340 333 326 321
323 325 328 330 333 335 337 339 340 341 342 344 349 1 22 29 27 25 23 22 22 21 20 19 19 19 18 17 17 16 14 12 10 7 6 4 2 0 359 356 353 348 339 330
321 324 328 331 333 335 337 339 340 342 344 348 358 17 32 30 26 24 23 23 22 21 20 20 20 19 19 19 19 18 17 15 13 13 12 12 11 10 9 9 8 7 3 357
321 325 328 330 333 335 337 339 341 343 347 354 9 30 33 29 26 25 25 24 23 22 21 21 20 20 20 21 21 20 19 18 17 18 20 20 19 18 18 19 21 23 25 27
321 324 327 330 333 335 338 340 342 346 351 1 23 36 33 29 27 27 26 24 22 21 20 19 19 20 21 21 22 21 21 20 21 22 24 25 25 25 26 28 31 35 39 45